Year,Month,Day,Hour,Minute,Value (Times are PST for temperature in C)
2016,11,28,00,00,5.20
2016,11,28,00,01,5.20
2016,11,28,00,02,5.20
2016,11,28,00,03,5.20
2016,11,28,00,04,5.10
2016,11,28,00,05,5.10
2016,11,28,00,06,5.10
2016,11,28,00,07,5.10
2016,11,28,00,08,5.10
2016,11,28,00,09,5.10
2016,11,28,00,10,5.00
2016,11,28,00,11,5.00
2016,11,28,00,12,5.00
2016,11,28,00,13,4.90
2016,11,28,00,14,4.90
2016,11,28,00,15,4.90
2016,11,28,00,16,4.90
2016,11,28,00,17,4.90
2016,11,28,00,18,4.90
2016,11,28,00,19,4.80
2016,11,28,00,20,4.80
2016,11,28,00,21,4.80
2016,11,28,00,22,4.80
2016,11,28,00,23,4.80
2016,11,28,00,24,4.80
2016,11,28,00,25,4.70
2016,11,28,00,26,4.70
2016,11,28,00,27,4.70
2016,11,28,00,28,4.70
2016,11,28,00,29,4.70
2016,11,28,00,30,4.70
2016,11,28,00,31,4.60
2016,11,28,00,32,4.60
2016,11,28,00,33,4.60
2016,11,28,00,34,4.60
2016,11,28,00,35,4.60
2016,11,28,00,36,4.50
2016,11,28,00,37,4.50
2016,11,28,00,38,4.50
2016,11,28,00,39,4.50
2016,11,28,00,40,4.50
2016,11,28,00,41,4.40
2016,11,28,00,42,4.40
2016,11,28,00,43,4.40
2016,11,28,00,44,4.40
2016,11,28,00,45,4.40
2016,11,28,00,46,4.40
2016,11,28,00,47,4.40
2016,11,28,00,48,4.30
2016,11,28,00,49,4.30
2016,11,28,00,50,4.30
2016,11,28,00,51,4.30
2016,11,28,00,52,4.20
2016,11,28,00,53,4.20
2016,11,28,00,54,4.20
2016,11,28,00,55,4.10
2016,11,28,00,56,4.10
2016,11,28,00,57,4.10
2016,11,28,00,58,4.10
2016,11,28,00,59,4.10
2016,11,28,01,00,4.00
2016,11,28,01,01,4.10
2016,11,28,01,02,4.00
2016,11,28,01,03,4.00
2016,11,28,01,04,4.00
2016,11,28,01,05,4.00
2016,11,28,01,06,4.00
2016,11,28,01,07,4.00
2016,11,28,01,08,4.00
2016,11,28,01,09,4.00
2016,11,28,01,10,4.00
2016,11,28,01,11,3.90
2016,11,28,01,12,3.90
2016,11,28,01,13,3.90
2016,11,28,01,14,3.90
2016,11,28,01,15,3.90
2016,11,28,01,16,3.90
2016,11,28,01,17,3.80
2016,11,28,01,18,3.80
2016,11,28,01,19,3.80
2016,11,28,01,20,3.80
2016,11,28,01,21,3.80
2016,11,28,01,22,3.80
2016,11,28,01,23,3.80
2016,11,28,01,24,3.80
2016,11,28,01,25,3.80
2016,11,28,01,26,3.80
2016,11,28,01,27,3.80
2016,11,28,01,28,3.70
2016,11,28,01,29,3.70
2016,11,28,01,30,3.70
2016,11,28,01,31,3.70
2016,11,28,01,32,3.70
2016,11,28,01,33,3.70
2016,11,28,01,34,3.60
2016,11,28,01,35,3.60
2016,11,28,01,36,3.60
2016,11,28,01,37,3.60
2016,11,28,01,38,3.60
2016,11,28,01,39,3.60
2016,11,28,01,40,3.60
2016,11,28,01,41,3.50
2016,11,28,01,42,3.50
2016,11,28,01,43,3.50
2016,11,28,01,44,3.50
2016,11,28,01,45,3.50
2016,11,28,01,46,3.50
2016,11,28,01,47,3.50
2016,11,28,01,48,3.50
2016,11,28,01,49,3.50
2016,11,28,01,50,3.50
2016,11,28,01,51,3.50
2016,11,28,01,52,3.40
2016,11,28,01,53,3.50
2016,11,28,01,54,3.50
2016,11,28,01,55,3.50
2016,11,28,01,56,3.50
2016,11,28,01,57,3.50
2016,11,28,01,58,3.60
2016,11,28,01,59,3.60
2016,11,28,02,00,3.60
2016,11,28,02,01,3.60
2016,11,28,02,02,3.60
2016,11,28,02,03,3.60
2016,11,28,02,04,3.60
2016,11,28,02,05,3.60
2016,11,28,02,06,3.60
2016,11,28,02,07,3.60
2016,11,28,02,08,3.50
2016,11,28,02,09,3.50
2016,11,28,02,10,3.50
2016,11,28,02,11,3.50
2016,11,28,02,12,3.50
2016,11,28,02,13,3.50
2016,11,28,02,14,3.50
2016,11,28,02,15,3.50
2016,11,28,02,16,3.60
2016,11,28,02,17,3.60
2016,11,28,02,18,3.60
2016,11,28,02,19,3.60
2016,11,28,02,20,3.60
2016,11,28,02,21,3.60
2016,11,28,02,22,3.70
2016,11,28,02,23,3.70
2016,11,28,02,24,3.70
2016,11,28,02,25,3.80
2016,11,28,02,26,3.80
2016,11,28,02,27,3.80
2016,11,28,02,28,3.90
2016,11,28,02,29,3.90
2016,11,28,02,30,3.90
2016,11,28,02,31,4.00
2016,11,28,02,32,4.00
2016,11,28,02,33,4.10
2016,11,28,02,34,4.10
2016,11,28,02,35,4.20
2016,11,28,02,36,4.20
2016,11,28,02,37,4.20
2016,11,28,02,38,4.20
2016,11,28,02,39,4.30
2016,11,28,02,40,4.30
2016,11,28,02,41,4.30
2016,11,28,02,42,4.30
2016,11,28,02,43,4.30
2016,11,28,02,44,4.30
2016,11,28,02,45,4.30
2016,11,28,02,46,4.30
2016,11,28,02,47,4.30
2016,11,28,02,48,4.30
2016,11,28,02,49,4.30
2016,11,28,02,50,4.30
2016,11,28,02,51,4.40
2016,11,28,02,52,4.30
2016,11,28,02,53,4.40
2016,11,28,02,54,4.40
2016,11,28,02,55,4.40
2016,11,28,02,56,4.40
2016,11,28,02,57,4.40
2016,11,28,02,58,4.40
2016,11,28,02,59,4.40
2016,11,28,03,00,4.40
2016,11,28,03,01,4.40
2016,11,28,03,02,4.40
2016,11,28,03,03,4.40
2016,11,28,03,04,4.40
2016,11,28,03,05,4.40
2016,11,28,03,06,4.40
2016,11,28,03,07,4.40
2016,11,28,03,08,4.50
2016,11,28,03,09,4.50
2016,11,28,03,10,4.50
2016,11,28,03,11,4.60
2016,11,28,03,12,4.60
2016,11,28,03,13,4.60
2016,11,28,03,14,4.60
2016,11,28,03,15,4.70
2016,11,28,03,16,4.70
2016,11,28,03,17,4.70
2016,11,28,03,18,4.80
2016,11,28,03,19,4.80
2016,11,28,03,20,4.80
2016,11,28,03,21,4.90
2016,11,28,03,22,4.90
2016,11,28,03,23,4.90
2016,11,28,03,24,5.00
2016,11,28,03,25,5.00
2016,11,28,03,26,5.10
2016,11,28,03,27,5.20
2016,11,28,03,28,5.30
2016,11,28,03,29,5.30
2016,11,28,03,30,5.40
2016,11,28,03,31,5.50
2016,11,28,03,32,5.60
2016,11,28,03,33,5.70
2016,11,28,03,34,5.80
2016,11,28,03,35,5.90
2016,11,28,03,36,6.00
2016,11,28,03,37,6.10
2016,11,28,03,38,6.20
2016,11,28,03,39,6.20
2016,11,28,03,40,6.30
2016,11,28,03,41,6.40
2016,11,28,03,42,6.50
2016,11,28,03,43,6.50
2016,11,28,03,44,6.60
2016,11,28,03,45,6.70
2016,11,28,03,46,6.70
2016,11,28,03,47,6.80
2016,11,28,03,48,6.80
2016,11,28,03,49,6.90
2016,11,28,03,50,7.00
2016,11,28,03,51,7.00
2016,11,28,03,52,7.10
2016,11,28,03,53,7.20
2016,11,28,03,54,7.30
2016,11,28,03,55,7.40
2016,11,28,03,56,7.40
2016,11,28,03,57,7.50
2016,11,28,03,58,7.50
2016,11,28,03,59,7.50
2016,11,28,04,00,7.60
2016,11,28,04,01,7.60
2016,11,28,04,02,7.60
2016,11,28,04,03,7.60
2016,11,28,04,04,7.60
2016,11,28,04,05,7.60
2016,11,28,04,06,7.60
2016,11,28,04,07,7.60
2016,11,28,04,08,7.60
2016,11,28,04,09,7.60
2016,11,28,04,10,7.60
2016,11,28,04,11,7.60
2016,11,28,04,12,7.60
2016,11,28,04,13,7.50
2016,11,28,04,14,7.50
2016,11,28,04,15,7.50
2016,11,28,04,16,7.50
2016,11,28,04,17,7.50
2016,11,28,04,18,7.50
2016,11,28,04,19,7.40
2016,11,28,04,20,7.40
2016,11,28,04,21,7.40
2016,11,28,04,22,7.40
2016,11,28,04,23,7.40
2016,11,28,04,24,7.40
2016,11,28,04,25,7.40
2016,11,28,04,26,7.40
2016,11,28,04,27,7.30
2016,11,28,04,28,7.30
2016,11,28,04,29,7.30
2016,11,28,04,30,7.20
2016,11,28,04,31,7.20
2016,11,28,04,32,7.20
2016,11,28,04,33,7.10
2016,11,28,04,34,7.10
2016,11,28,04,35,7.10
2016,11,28,04,36,7.00
2016,11,28,04,37,7.00
2016,11,28,04,38,7.00
2016,11,28,04,39,7.00
2016,11,28,04,40,7.00
2016,11,28,04,41,7.10
2016,11,28,04,42,7.10
2016,11,28,04,43,7.20
2016,11,28,04,44,7.30
2016,11,28,04,45,7.30
2016,11,28,04,46,7.40
2016,11,28,04,47,7.50
2016,11,28,04,48,7.50
2016,11,28,04,49,7.60
2016,11,28,04,50,7.60
2016,11,28,04,51,7.70
2016,11,28,04,52,7.70
2016,11,28,04,53,7.80
2016,11,28,04,54,7.80
2016,11,28,04,55,7.90
2016,11,28,04,56,7.90
2016,11,28,04,57,8.00
2016,11,28,04,58,8.10
2016,11,28,04,59,8.10
2016,11,28,05,00,8.20
2016,11,28,05,01,8.20
2016,11,28,05,02,8.30
2016,11,28,05,03,8.30
2016,11,28,05,04,8.30
2016,11,28,05,05,8.40
2016,11,28,05,06,8.40
2016,11,28,05,07,8.50
2016,11,28,05,08,8.50
2016,11,28,05,09,8.60
2016,11,28,05,10,8.60
2016,11,28,05,11,8.60
2016,11,28,05,12,8.60
2016,11,28,05,13,8.70
2016,11,28,05,14,8.70
2016,11,28,05,15,8.70
2016,11,28,05,16,8.70
2016,11,28,05,17,8.70
2016,11,28,05,18,8.70
2016,11,28,05,19,8.70
2016,11,28,05,20,8.60
2016,11,28,05,21,8.60
2016,11,28,05,22,8.60
2016,11,28,05,23,8.60
2016,11,28,05,24,8.60
2016,11,28,05,25,8.60
2016,11,28,05,26,8.60
2016,11,28,05,27,8.60
2016,11,28,05,28,8.60
2016,11,28,05,29,8.60
2016,11,28,05,30,8.50
2016,11,28,05,31,8.50
2016,11,28,05,32,8.50
2016,11,28,05,33,8.50
2016,11,28,05,34,8.50
2016,11,28,05,35,8.40
2016,11,28,05,36,8.40
2016,11,28,05,37,8.40
2016,11,28,05,38,8.40
2016,11,28,05,39,8.40
2016,11,28,05,40,8.40
2016,11,28,05,41,8.40
2016,11,28,05,42,8.40
2016,11,28,05,43,8.40
2016,11,28,05,44,8.40
2016,11,28,05,45,8.50
2016,11,28,05,46,8.40
2016,11,28,05,47,8.50
2016,11,28,05,48,8.40
2016,11,28,05,49,8.50
2016,11,28,05,50,8.50
2016,11,28,05,51,8.50
2016,11,28,05,52,8.50
2016,11,28,05,53,8.50
2016,11,28,05,54,8.50
2016,11,28,05,55,8.50
2016,11,28,05,56,8.50
2016,11,28,05,57,8.50
2016,11,28,05,58,8.50
2016,11,28,05,59,8.50
2016,11,28,06,00,8.50
2016,11,28,06,01,8.50
2016,11,28,06,02,8.50
2016,11,28,06,03,8.50
2016,11,28,06,04,8.50
2016,11,28,06,05,8.50
2016,11,28,06,06,8.50
2016,11,28,06,07,8.50
2016,11,28,06,08,8.50
2016,11,28,06,09,8.50
2016,11,28,06,10,8.50
2016,11,28,06,11,8.50
2016,11,28,06,12,8.40
2016,11,28,06,13,8.40
2016,11,28,06,14,8.40
2016,11,28,06,15,8.40
2016,11,28,06,16,8.40
2016,11,28,06,17,8.40
2016,11,28,06,18,8.40
2016,11,28,06,19,8.40
2016,11,28,06,20,8.30
2016,11,28,06,21,8.30
2016,11,28,06,22,8.30
2016,11,28,06,23,8.30
2016,11,28,06,24,8.30
2016,11,28,06,25,8.30
2016,11,28,06,26,8.20
2016,11,28,06,27,8.20
2016,11,28,06,28,8.20
2016,11,28,06,29,8.20
2016,11,28,06,30,8.10
2016,11,28,06,31,8.10
2016,11,28,06,32,8.10
2016,11,28,06,33,8.10
2016,11,28,06,34,8.10
2016,11,28,06,35,8.10
2016,11,28,06,36,8.10
2016,11,28,06,37,8.00
2016,11,28,06,38,8.00
2016,11,28,06,39,7.90
2016,11,28,06,40,7.90
2016,11,28,06,41,7.90
2016,11,28,06,42,7.90
2016,11,28,06,43,7.80
2016,11,28,06,44,7.80
2016,11,28,06,45,7.80
2016,11,28,06,46,7.70
2016,11,28,06,47,7.70
2016,11,28,06,48,7.70
2016,11,28,06,49,7.60
2016,11,28,06,50,7.60
2016,11,28,06,51,7.50
2016,11,28,06,52,7.50
2016,11,28,06,53,7.40
2016,11,28,06,54,7.30
2016,11,28,06,55,7.20
2016,11,28,06,56,7.20
2016,11,28,06,57,7.10
2016,11,28,06,58,7.00
2016,11,28,06,59,6.90
2016,11,28,07,00,6.80
2016,11,28,07,01,6.80
2016,11,28,07,02,6.70
2016,11,28,07,03,6.70
2016,11,28,07,04,6.60
2016,11,28,07,05,6.50
2016,11,28,07,06,6.50
2016,11,28,07,07,6.40
2016,11,28,07,08,6.40
2016,11,28,07,09,6.30
2016,11,28,07,10,6.30
2016,11,28,07,11,6.30
2016,11,28,07,12,6.20
2016,11,28,07,13,6.20
2016,11,28,07,14,6.20
2016,11,28,07,15,6.20
2016,11,28,07,16,6.10
2016,11,28,07,17,6.10
2016,11,28,07,18,6.00
2016,11,28,07,19,6.00
2016,11,28,07,20,5.90
2016,11,28,07,21,5.90
2016,11,28,07,22,5.80
2016,11,28,07,23,5.80
2016,11,28,07,24,5.70
2016,11,28,07,25,5.70
2016,11,28,07,26,5.60
2016,11,28,07,27,5.60
2016,11,28,07,28,5.50
2016,11,28,07,29,5.50
2016,11,28,07,30,5.40
2016,11,28,07,31,5.30
2016,11,28,07,32,5.20
2016,11,28,07,33,5.10
2016,11,28,07,34,5.10
2016,11,28,07,35,5.00
2016,11,28,07,36,4.90
2016,11,28,07,37,4.90
2016,11,28,07,38,4.90
2016,11,28,07,39,4.80
2016,11,28,07,40,4.70
2016,11,28,07,41,4.70
2016,11,28,07,42,4.60
2016,11,28,07,43,4.60
2016,11,28,07,44,4.50
2016,11,28,07,45,4.50
2016,11,28,07,46,4.40
2016,11,28,07,47,4.40
2016,11,28,07,48,4.40
2016,11,28,07,49,4.30
2016,11,28,07,50,4.30
2016,11,28,07,51,4.30
2016,11,28,07,52,4.30
2016,11,28,07,53,4.20
2016,11,28,07,54,4.20
2016,11,28,07,55,4.20
2016,11,28,07,56,4.20
2016,11,28,07,57,4.20
2016,11,28,07,58,4.20
2016,11,28,07,59,4.20
2016,11,28,08,00,4.20
2016,11,28,08,01,4.10
2016,11,28,08,02,4.10
2016,11,28,08,03,4.10
2016,11,28,08,04,4.10
2016,11,28,08,05,4.10
2016,11,28,08,06,4.10
2016,11,28,08,07,4.10
2016,11,28,08,08,4.10
2016,11,28,08,09,4.10
2016,11,28,08,10,4.10
2016,11,28,08,11,4.10
2016,11,28,08,12,4.10
2016,11,28,08,13,4.10
2016,11,28,08,14,4.10
2016,11,28,08,15,4.10
2016,11,28,08,16,4.10
2016,11,28,08,17,4.00
2016,11,28,08,18,4.00
2016,11,28,08,19,4.00
2016,11,28,08,20,4.00
2016,11,28,08,21,4.00
2016,11,28,08,22,4.00
2016,11,28,08,23,4.10
2016,11,28,08,24,4.10
2016,11,28,08,25,4.10
2016,11,28,08,26,4.10
2016,11,28,08,27,4.10
2016,11,28,08,28,4.10
2016,11,28,08,29,4.10
2016,11,28,08,30,4.10
2016,11,28,08,31,4.10
2016,11,28,08,32,4.10
2016,11,28,08,33,4.10
2016,11,28,08,34,4.10
2016,11,28,08,35,4.10
2016,11,28,08,36,4.10
2016,11,28,08,37,4.10
2016,11,28,08,38,4.10
2016,11,28,08,39,4.10
2016,11,28,08,40,4.10
2016,11,28,08,41,4.10
2016,11,28,08,42,4.10
2016,11,28,08,43,4.20
2016,11,28,08,44,4.20
2016,11,28,08,45,4.20
2016,11,28,08,46,4.10
2016,11,28,08,47,4.20
2016,11,28,08,48,4.10
2016,11,28,08,49,4.20
2016,11,28,08,50,4.20
2016,11,28,08,51,4.20
2016,11,28,08,52,4.20
2016,11,28,08,53,4.20
2016,11,28,08,54,4.20
2016,11,28,08,55,4.20
2016,11,28,08,56,4.20
2016,11,28,08,57,4.20
2016,11,28,08,58,4.20
2016,11,28,08,59,4.20
2016,11,28,09,00,4.30
2016,11,28,09,01,4.20
2016,11,28,09,02,4.30
2016,11,28,09,03,4.30
2016,11,28,09,04,4.30
2016,11,28,09,05,4.30
2016,11,28,09,06,4.30
2016,11,28,09,07,4.30
2016,11,28,09,08,4.30
2016,11,28,09,09,4.30
2016,11,28,09,10,4.30
2016,11,28,09,11,4.30
2016,11,28,09,12,4.30
2016,11,28,09,13,4.30
2016,11,28,09,14,4.30
2016,11,28,09,15,4.30
2016,11,28,09,16,4.30
2016,11,28,09,17,4.40
2016,11,28,09,18,4.40
2016,11,28,09,19,4.40
2016,11,28,09,20,4.40
2016,11,28,09,21,4.40
2016,11,28,09,22,4.40
2016,11,28,09,23,4.40
2016,11,28,09,24,4.40
2016,11,28,09,25,4.50
2016,11,28,09,26,4.50
2016,11,28,09,27,4.50
2016,11,28,09,28,4.50
2016,11,28,09,29,4.50
2016,11,28,09,30,4.50
2016,11,28,09,31,4.50
2016,11,28,09,32,4.60
2016,11,28,09,33,4.60
2016,11,28,09,34,4.60
2016,11,28,09,35,4.60
2016,11,28,09,36,4.60
2016,11,28,09,37,4.60
2016,11,28,09,38,4.60
2016,11,28,09,39,4.60
2016,11,28,09,40,4.70
2016,11,28,09,41,4.70
2016,11,28,09,42,4.70
2016,11,28,09,43,4.70
2016,11,28,09,44,4.70
2016,11,28,09,45,4.70
2016,11,28,09,46,4.80
2016,11,28,09,47,4.80
2016,11,28,09,48,4.80
2016,11,28,09,49,4.80
2016,11,28,09,50,4.90
2016,11,28,09,51,4.90
2016,11,28,09,52,4.90
2016,11,28,09,53,4.90
2016,11,28,09,54,4.90
2016,11,28,09,55,4.90
2016,11,28,09,56,5.00
2016,11,28,09,57,5.00
2016,11,28,09,58,5.10
2016,11,28,09,59,5.10
2016,11,28,10,00,5.10
2016,11,28,10,01,5.10
2016,11,28,10,02,5.20
2016,11,28,10,03,5.20
2016,11,28,10,04,5.20
2016,11,28,10,05,5.20
2016,11,28,10,06,5.20
2016,11,28,10,07,5.30
2016,11,28,10,08,5.30
2016,11,28,10,09,5.30
2016,11,28,10,10,5.40
2016,11,28,10,11,5.40
2016,11,28,10,12,5.50
2016,11,28,10,13,5.50
2016,11,28,10,14,5.60
2016,11,28,10,15,5.60
2016,11,28,10,16,5.70
2016,11,28,10,17,5.70
2016,11,28,10,18,5.80
2016,11,28,10,19,5.80
2016,11,28,10,20,5.80
2016,11,28,10,21,5.90
2016,11,28,10,22,5.90
2016,11,28,10,23,5.90
2016,11,28,10,24,5.90
2016,11,28,10,25,6.00
2016,11,28,10,26,6.00
2016,11,28,10,27,6.00
2016,11,28,10,28,6.10
2016,11,28,10,29,6.10
2016,11,28,10,30,6.10
2016,11,28,10,31,6.10
2016,11,28,10,32,6.20
2016,11,28,10,33,6.20
2016,11,28,10,34,6.20
2016,11,28,10,35,6.30
2016,11,28,10,36,6.30
2016,11,28,10,37,6.30
2016,11,28,10,38,6.40
2016,11,28,10,39,6.40
2016,11,28,10,40,6.40
2016,11,28,10,41,6.50
2016,11,28,10,42,6.50
2016,11,28,10,43,6.50
2016,11,28,10,44,6.60
2016,11,28,10,45,6.60
2016,11,28,10,46,6.60
2016,11,28,10,47,6.70
2016,11,28,10,48,6.70
2016,11,28,10,49,6.70
2016,11,28,10,50,6.80
2016,11,28,10,51,6.80
2016,11,28,10,52,6.90
2016,11,28,10,53,6.90
2016,11,28,10,54,6.90
2016,11,28,10,55,7.00
2016,11,28,10,56,7.00
2016,11,28,10,57,7.10
2016,11,28,10,58,7.20
2016,11,28,10,59,7.20
2016,11,28,11,00,7.30
2016,11,28,11,01,7.30
2016,11,28,11,02,7.30
2016,11,28,11,03,7.40
2016,11,28,11,04,7.40
2016,11,28,11,05,7.50
2016,11,28,11,06,7.50
2016,11,28,11,07,7.50
2016,11,28,11,08,7.60
2016,11,28,11,09,7.60
2016,11,28,11,10,7.70
2016,11,28,11,11,7.70
2016,11,28,11,12,7.80
2016,11,28,11,13,7.80
2016,11,28,11,14,7.80
2016,11,28,11,15,7.80
2016,11,28,11,16,7.90
2016,11,28,11,17,7.90
2016,11,28,11,18,8.00
2016,11,28,11,19,8.00
2016,11,28,11,20,8.00
2016,11,28,11,21,8.10
2016,11,28,11,22,8.10
2016,11,28,11,23,8.10
2016,11,28,11,24,8.20
2016,11,28,11,25,8.20
2016,11,28,11,26,8.20
2016,11,28,11,27,8.20
2016,11,28,11,28,8.30
2016,11,28,11,29,8.30
2016,11,28,11,30,8.30
2016,11,28,11,31,8.30
2016,11,28,11,32,8.30
2016,11,28,11,33,8.40
2016,11,28,11,34,8.40
2016,11,28,11,35,8.40
2016,11,28,11,36,8.40
2016,11,28,11,37,8.50
2016,11,28,11,38,8.50
2016,11,28,11,39,8.50
2016,11,28,11,40,8.50
2016,11,28,11,41,8.60
2016,11,28,11,42,8.60
2016,11,28,11,43,8.60
2016,11,28,11,44,8.60
2016,11,28,11,45,8.70
2016,11,28,11,46,8.70
2016,11,28,11,47,8.70
2016,11,28,11,48,8.80
2016,11,28,11,49,8.80
2016,11,28,11,50,8.80
2016,11,28,11,51,8.90
2016,11,28,11,52,8.90
2016,11,28,11,53,8.90
2016,11,28,11,54,8.90
2016,11,28,11,55,8.90
2016,11,28,11,56,8.90
2016,11,28,11,57,8.90
2016,11,28,11,58,8.90
2016,11,28,11,59,8.90
2016,11,28,12,00,8.90
2016,11,28,12,01,9.00
2016,11,28,12,02,9.00
2016,11,28,12,03,9.00
2016,11,28,12,04,9.00
2016,11,28,12,05,9.00
2016,11,28,12,06,8.90
2016,11,28,12,07,8.90
2016,11,28,12,08,8.90
2016,11,28,12,09,9.00
2016,11,28,12,10,9.00
2016,11,28,12,11,9.00
2016,11,28,12,12,9.00
2016,11,28,12,13,9.00
2016,11,28,12,14,9.10
2016,11,28,12,15,9.10
2016,11,28,12,16,9.10
2016,11,28,12,17,9.10
2016,11,28,12,18,9.10
2016,11,28,12,19,9.20
2016,11,28,12,20,9.20
2016,11,28,12,21,9.20
2016,11,28,12,22,9.20
2016,11,28,12,23,9.30
2016,11,28,12,24,9.30
2016,11,28,12,25,9.30
2016,11,28,12,26,9.30
2016,11,28,12,27,9.30
2016,11,28,12,28,9.30
2016,11,28,12,29,9.30
2016,11,28,12,30,9.30
2016,11,28,12,31,9.30
2016,11,28,12,32,9.30
2016,11,28,12,33,9.30
2016,11,28,12,34,9.30
2016,11,28,12,35,9.30
2016,11,28,12,36,9.30
2016,11,28,12,37,9.40
2016,11,28,12,38,9.40
2016,11,28,12,39,9.40
2016,11,28,12,40,9.50
2016,11,28,12,41,9.50
2016,11,28,12,42,9.50
2016,11,28,12,43,9.60
2016,11,28,12,44,9.60
2016,11,28,12,45,9.60
2016,11,28,12,46,9.60
2016,11,28,12,47,9.70
2016,11,28,12,48,9.70
2016,11,28,12,49,9.70
2016,11,28,12,50,9.70
2016,11,28,12,51,9.70
2016,11,28,12,52,9.70
2016,11,28,12,53,9.80
2016,11,28,12,54,9.80
2016,11,28,12,55,9.80
2016,11,28,12,56,9.80
2016,11,28,12,57,9.80
2016,11,28,12,58,9.80
2016,11,28,12,59,9.90
2016,11,28,13,00,9.90
2016,11,28,13,01,9.90
2016,11,28,13,02,9.90
2016,11,28,13,03,9.90
2016,11,28,13,04,9.90
2016,11,28,13,05,9.90
2016,11,28,13,06,9.90
2016,11,28,13,07,10.00
2016,11,28,13,08,10.00
2016,11,28,13,09,10.00
2016,11,28,13,10,10.10
2016,11,28,13,11,10.10
2016,11,28,13,12,10.10
2016,11,28,13,13,10.10
2016,11,28,13,14,10.10
2016,11,28,13,15,10.10
2016,11,28,13,16,10.10
2016,11,28,13,17,10.10
2016,11,28,13,18,10.00
2016,11,28,13,19,10.00
2016,11,28,13,20,10.00
2016,11,28,13,21,10.00
2016,11,28,13,22,9.90
2016,11,28,13,23,9.90
2016,11,28,13,24,9.90
2016,11,28,13,25,9.90
2016,11,28,13,26,9.90
2016,11,28,13,27,9.90
2016,11,28,13,28,9.90
2016,11,28,13,29,9.90
2016,11,28,13,30,9.90
2016,11,28,13,31,9.80
2016,11,28,13,32,9.80
2016,11,28,13,33,9.80
2016,11,28,13,34,9.80
2016,11,28,13,35,9.80
2016,11,28,13,36,9.80
2016,11,28,13,37,9.80
2016,11,28,13,38,9.80
2016,11,28,13,39,9.80
2016,11,28,13,40,9.80
2016,11,28,13,41,9.80
2016,11,28,13,42,9.80
2016,11,28,13,43,9.80
2016,11,28,13,44,9.80
2016,11,28,13,45,9.70
2016,11,28,13,46,9.70
2016,11,28,13,47,9.70
2016,11,28,13,48,9.70
2016,11,28,13,49,9.70
2016,11,28,13,50,9.70
2016,11,28,13,51,9.70
2016,11,28,13,52,9.70
2016,11,28,13,53,9.70
2016,11,28,13,54,9.70
2016,11,28,13,55,9.70
2016,11,28,13,56,9.70
2016,11,28,13,57,9.70
2016,11,28,13,58,9.70
2016,11,28,13,59,9.70
2016,11,28,14,00,9.70
2016,11,28,14,01,9.70
2016,11,28,14,02,9.70
2016,11,28,14,03,9.80
2016,11,28,14,04,9.80
2016,11,28,14,05,9.80
2016,11,28,14,06,9.80
2016,11,28,14,07,9.80
2016,11,28,14,08,9.90
2016,11,28,14,09,9.90
2016,11,28,14,10,9.90
2016,11,28,14,11,9.90
2016,11,28,14,12,9.90
2016,11,28,14,13,10.00
2016,11,28,14,14,9.90
2016,11,28,14,15,10.00
2016,11,28,14,16,10.00
2016,11,28,14,17,10.00
2016,11,28,14,18,9.90
2016,11,28,14,19,9.90
2016,11,28,14,20,9.90
2016,11,28,14,21,9.90
2016,11,28,14,22,9.90
2016,11,28,14,23,9.90
2016,11,28,14,24,9.90
2016,11,28,14,25,9.90
2016,11,28,14,26,9.90
2016,11,28,14,27,9.90
2016,11,28,14,28,9.90
2016,11,28,14,29,9.90
2016,11,28,14,30,10.00
2016,11,28,14,31,9.90
2016,11,28,14,32,9.90
2016,11,28,14,33,9.90
2016,11,28,14,34,9.90
2016,11,28,14,35,9.90
2016,11,28,14,36,9.90
2016,11,28,14,37,9.90
2016,11,28,14,38,9.90
2016,11,28,14,39,9.90
2016,11,28,14,40,9.90
2016,11,28,14,41,9.90
2016,11,28,14,42,9.90
2016,11,28,14,43,9.90
2016,11,28,14,44,10.00
2016,11,28,14,45,10.00
2016,11,28,14,46,10.00
2016,11,28,14,47,10.00
2016,11,28,14,48,10.00
2016,11,28,14,49,10.00
2016,11,28,14,50,10.00
2016,11,28,14,51,10.00
2016,11,28,14,52,10.00
2016,11,28,14,53,10.00
2016,11,28,14,54,10.00
2016,11,28,14,55,10.10
2016,11,28,14,56,10.10
2016,11,28,14,57,10.00
2016,11,28,14,58,10.00
2016,11,28,14,59,10.00
2016,11,28,15,00,10.00
2016,11,28,15,01,10.00
2016,11,28,15,02,10.00
2016,11,28,15,03,10.00
2016,11,28,15,04,10.00
2016,11,28,15,05,10.00
2016,11,28,15,06,10.00
2016,11,28,15,07,10.00
2016,11,28,15,08,10.00
2016,11,28,15,09,10.00
2016,11,28,15,10,10.00
2016,11,28,15,11,10.00
2016,11,28,15,12,10.00
2016,11,28,15,13,10.00
2016,11,28,15,14,10.00
2016,11,28,15,15,9.90
2016,11,28,15,16,9.90
2016,11,28,15,17,9.90
2016,11,28,15,18,9.90
2016,11,28,15,19,9.90
2016,11,28,15,20,9.90
2016,11,28,15,21,9.90
2016,11,28,15,22,9.90
2016,11,28,15,23,9.90
2016,11,28,15,24,9.90
2016,11,28,15,25,9.90
2016,11,28,15,26,9.90
2016,11,28,15,27,9.90
2016,11,28,15,28,9.90
2016,11,28,15,29,9.90
2016,11,28,15,30,10.00
2016,11,28,15,31,10.00
2016,11,28,15,32,10.00
2016,11,28,15,33,10.00
2016,11,28,15,34,10.00
2016,11,28,15,35,10.10
2016,11,28,15,36,10.10
2016,11,28,15,37,10.00
2016,11,28,15,38,10.00
2016,11,28,15,39,10.00
2016,11,28,15,40,10.00
2016,11,28,15,41,10.00
2016,11,28,15,42,9.90
2016,11,28,15,43,9.90
2016,11,28,15,44,9.90
2016,11,28,15,45,9.90
2016,11,28,15,46,9.90
2016,11,28,15,47,9.80
2016,11,28,15,48,9.80
2016,11,28,15,49,9.80
2016,11,28,15,50,9.70
2016,11,28,15,51,9.70
2016,11,28,15,52,9.70
2016,11,28,15,53,9.60
2016,11,28,15,54,9.60
2016,11,28,15,55,9.60
2016,11,28,15,56,9.60
2016,11,28,15,57,9.60
2016,11,28,15,58,9.60
2016,11,28,15,59,9.50
2016,11,28,16,00,9.50
2016,11,28,16,01,9.50
2016,11,28,16,02,9.50
2016,11,28,16,03,9.50
2016,11,28,16,04,9.40
2016,11,28,16,05,9.40
2016,11,28,16,06,9.40
2016,11,28,16,07,9.40
2016,11,28,16,08,9.40
2016,11,28,16,09,9.40
2016,11,28,16,10,9.30
2016,11,28,16,11,9.30
2016,11,28,16,12,9.30
2016,11,28,16,13,9.30
2016,11,28,16,14,9.30
2016,11,28,16,15,9.30
2016,11,28,16,16,9.20
2016,11,28,16,17,9.20
2016,11,28,16,18,9.20
2016,11,28,16,19,9.20
2016,11,28,16,20,9.20
2016,11,28,16,21,9.10
2016,11,28,16,22,9.10
2016,11,28,16,23,9.10
2016,11,28,16,24,9.10
2016,11,28,16,25,9.10
2016,11,28,16,26,9.00
2016,11,28,16,27,9.00
2016,11,28,16,28,9.00
2016,11,28,16,29,9.00
2016,11,28,16,30,8.90
2016,11,28,16,31,8.90
2016,11,28,16,32,8.90
2016,11,28,16,33,8.90
2016,11,28,16,34,8.90
2016,11,28,16,35,8.90
2016,11,28,16,36,8.90
2016,11,28,16,37,8.90
2016,11,28,16,38,8.80
2016,11,28,16,39,8.80
2016,11,28,16,40,8.80
2016,11,28,16,41,8.80
2016,11,28,16,42,8.80
2016,11,28,16,43,8.80
2016,11,28,16,44,8.80
2016,11,28,16,45,8.80
2016,11,28,16,46,8.80
2016,11,28,16,47,8.70
2016,11,28,16,48,8.70
2016,11,28,16,49,8.70
2016,11,28,16,50,8.70
2016,11,28,16,51,8.70
2016,11,28,16,52,8.70
2016,11,28,16,53,8.70
2016,11,28,16,54,8.70
2016,11,28,16,55,8.60
2016,11,28,16,56,8.60
2016,11,28,16,57,8.60
2016,11,28,16,58,8.60
2016,11,28,16,59,8.60
2016,11,28,17,00,8.60
2016,11,28,17,01,8.60
2016,11,28,17,02,8.60
2016,11,28,17,03,8.60
2016,11,28,17,04,8.50
2016,11,28,17,05,8.50
2016,11,28,17,06,8.50
2016,11,28,17,07,8.50
2016,11,28,17,08,8.50
2016,11,28,17,09,8.50
2016,11,28,17,10,8.50
2016,11,28,17,11,8.50
2016,11,28,17,12,8.50
2016,11,28,17,13,8.50
2016,11,28,17,14,8.40
2016,11,28,17,15,8.40
2016,11,28,17,16,8.40
2016,11,28,17,17,8.40
2016,11,28,17,18,8.40
2016,11,28,17,19,8.40
2016,11,28,17,20,8.40
2016,11,28,17,21,8.40
2016,11,28,17,22,8.40
2016,11,28,17,23,8.30
2016,11,28,17,24,8.30
2016,11,28,17,25,8.30
2016,11,28,17,26,8.30
2016,11,28,17,27,8.30
2016,11,28,17,28,8.30
2016,11,28,17,29,8.30
2016,11,28,17,30,8.30
2016,11,28,17,31,8.30
2016,11,28,17,32,8.20
2016,11,28,17,33,8.20
2016,11,28,17,34,8.20
2016,11,28,17,35,8.20
2016,11,28,17,36,8.20
2016,11,28,17,37,8.10
2016,11,28,17,38,8.10
2016,11,28,17,39,8.10
2016,11,28,17,40,8.10
2016,11,28,17,41,8.10
2016,11,28,17,42,8.00
2016,11,28,17,43,8.00
2016,11,28,17,44,8.00
2016,11,28,17,45,8.00
2016,11,28,17,46,7.90
2016,11,28,17,47,7.90
2016,11,28,17,48,7.90
2016,11,28,17,49,7.90
2016,11,28,17,50,7.90
2016,11,28,17,51,7.90
2016,11,28,17,52,7.80
2016,11,28,17,53,7.80
2016,11,28,17,54,7.80
2016,11,28,17,55,7.80
2016,11,28,17,56,7.80
2016,11,28,17,57,7.80
2016,11,28,17,58,7.80
2016,11,28,17,59,7.80
2016,11,28,18,00,7.80
2016,11,28,18,01,7.80
2016,11,28,18,02,7.80
2016,11,28,18,03,7.70